Date String (YYYY-MM-DD hh:mm:ss) UTC,Instrument flags,absolute air pressure of the measurement (hPa),sample flow rate (lpm),inlet stack bypass flow (lpm),air temperature of the measurement (°C),ambient temperature measured by the external sensor (°C),aerosol sample conditioner tube jacket temperature (°C),OPC LED temperature (°C),internal box temperature (°C),relative humidity of the measurement (%),span deviation,mass concentration of particles derived from Lorenz-Mie calculation of OPC scattering (μg/m³),mass concentration of particles derived from Lorenz-Mie calculation of OPC scattering (μg/m³),mass concentration of particles derived from Lorenz-Mie calculation of OPC scattering (μg/m³)
DateTimeUTC,F1_M11,P_M11,Q1_M11,Q2_M11,T1_M11,T2_M11,T3_M11,T4_M11,T5_M11,U1_M11,ZSPAN_M11,X0_M11,X2_M11,X1_M11
2023-10-04 14:00:00,SystemResetWarning,0832.8,5.00,000.00,029.3,028.0,000.0,037.6,030.9,15.2,0000.0,0004.71,0002.54,0001.86
2023-10-04 14:01:00,SystemResetWarning,0832.8,5.00,000.00,029.3,028.0,000.0,037.7,030.9,15.4,0000.0,0004.68,0002.51,0001.85
2023-10-04 14:02:00,SystemResetWarning,0833.1,4.99,000.00,029.3,028.0,000.0,037.7,031.0,15.1,0000.0,0004.65,0002.53,0001.87
2023-10-04 14:03:00,SystemResetWarning,0833.1,4.99,000.00,029.3,028.0,000.0,037.7,031.0,15.5,0000.0,0004.62,0002.56,0001.90
2023-10-04 14:04:00,SystemResetWarning,0832.9,5.00,000.00,029.3,028.1,000.0,037.7,031.0,15.5,0000.0,0004.64,0002.56,0001.91
2023-10-04 14:05:00,SystemResetWarning,0833.0,5.00,000.00,029.4,028.1,000.0,037.7,031.0,15.2,0000.0,0004.51,0002.52,0001.91
2023-10-04 14:06:00,SystemResetWarning,0832.9,5.00,000.00,029.4,028.1,000.0,037.7,031.0,15.4,0000.0,0004.42,0002.52,0001.92
2023-10-04 14:07:00,SystemResetWarning,0833.0,5.00,000.00,029.4,028.1,000.0,037.7,031.0,15.3,0000.0,0004.87,0002.50,0001.95
2023-10-04 14:08:00,SystemResetWarning,0833.0,5.00,000.00,029.4,028.1,000.0,037.8,031.0,15.4,0000.0,0005.47,0002.48,0001.97
2023-10-04 14:09:00,SystemResetWarning,0832.9,5.00,000.00,029.4,028.1,000.0,037.8,031.1,15.4,0000.0,0005.90,0002.55,0001.99
2023-10-04 14:10:00,SystemResetWarning,0833.0,5.00,000.00,029.4,028.1,000.0,037.8,031.1,15.3,0000.0,0006.39,0002.58,0002.01
2023-10-04 14:11:00,SystemResetWarning,0833.1,5.00,000.00,029.4,028.1,000.0,037.8,031.1,15.4,0000.0,0006.49,0002.55,0002.03
2023-10-04 14:12:00,SystemResetWarning,0833.2,5.00,000.00,029.5,028.1,000.0,037.8,031.1,15.5,0000.0,0006.72,0002.61,0002.04
2023-10-04 14:13:00,SystemResetWarning,0833.1,5.00,000.00,029.5,028.2,000.0,037.8,031.1,15.5,0000.0,0006.84,0002.66,0002.05
2023-10-04 14:14:00,SystemResetWarning,0833.0,5.00,000.00,029.5,028.2,000.0,037.8,031.1,15.6,0000.0,0006.79,0002.64,0002.04
2023-10-04 14:15:00,SystemResetWarning,0833.0,5.00,000.00,029.5,028.2,000.0,037.8,031.1,15.5,0000.0,0006.70,0002.66,0002.04
2023-10-04 14:16:00,SystemResetWarning,0833.0,5.00,000.00,029.5,028.2,000.0,037.8,031.1,15.5,0000.0,0006.94,0002.69,0002.06
2023-10-04 14:17:00,SystemResetWarning,0833.0,5.00,000.00,029.5,028.2,000.0,037.9,031.2,15.4,0000.0,0007.22,0002.70,0002.07
2023-10-04 14:18:00,SystemResetWarning,0833.1,5.00,000.00,029.5,028.2,000.0,037.9,031.2,15.3,0000.0,0007.04,0002.72,0002.06
2023-10-04 14:19:00,SystemResetWarning,0833.0,5.00,000.00,029.5,028.2,000.0,037.9,031.2,15.2,0000.0,0006.24,0002.72,0002.05
2023-10-04 14:20:00,SystemResetWarning,0833.0,5.00,000.00,029.5,028.2,000.0,037.9,031.2,15.4,0000.0,0006.29,0002.70,0002.04
2023-10-04 14:21:00,SystemResetWarning,0833.3,5.00,000.00,029.6,028.2,000.0,037.9,031.2,15.4,0000.0,0006.64,0002.70,0002.04
2023-10-04 14:22:00,SystemResetWarning,0833.5,5.00,000.00,029.6,028.3,000.0,037.9,031.2,15.4,0000.0,0006.59,0002.73,0002.03
2023-10-04 14:23:00,SystemResetWarning,0833.0,5.00,000.00,029.6,028.3,000.0,038.0,031.2,15.3,0000.0,0006.65,0002.74,0002.03
2023-10-04 14:24:00,SystemResetWarning,0833.1,5.01,000.00,029.6,028.3,000.0,038.0,031.2,15.1,0000.0,0006.66,0002.77,0002.04
2023-10-04 14:25:00,SystemResetWarning,0833.0,5.00,000.00,029.6,028.3,000.0,038.0,031.3,15.2,0000.0,0006.59,0002.77,0002.05
2023-10-04 14:26:00,SystemResetWarning,0833.1,4.99,000.00,029.6,027.4,000.0,038.0,031.2,15.3,0000.0,0006.59,0002.78,0002.05
2023-10-04 14:27:00,SystemResetWarning,0833.0,5.00,000.00,029.5,025.4,000.0,037.9,030.9,15.1,0000.0,0006.42,0002.79,0002.03
2023-10-04 14:28:00,SystemResetWarning,0833.0,5.00,000.00,029.4,024.4,000.0,037.8,030.7,15.3,0000.0,0006.17,0002.80,0002.00
2023-10-04 14:29:00,SystemResetWarning,0833.0,5.01,000.00,029.2,024.4,000.0,037.8,030.4,15.4,0000.0,0006.00,0002.80,0001.98
2023-10-04 14:30:00,SystemResetWarning,0833.0,5.01,000.00,029.1,024.8,000.0,037.7,030.3,15.5,0000.0,0006.03,0002.79,0001.97
2023-10-04 14:31:00,SystemResetWarning,0833.0,4.99,000.00,029.0,025.2,000.0,037.7,030.3,15.5,0000.0,0006.08,0002.74,0001.96
2023-10-04 14:32:00,SystemResetWarning,0833.1,5.00,000.00,029.0,025.7,000.0,037.7,030.3,15.6,0000.0,0005.47,0002.73,0001.95
2023-10-04 14:33:00,SystemResetWarning,0833.2,5.01,000.00,028.9,026.0,000.0,037.6,030.4,15.8,0000.0,0005.50,0002.76,0001.94
2023-10-04 14:34:00,SystemResetWarning,0833.0,5.01,000.00,028.9,026.3,000.0,037.6,030.4,15.8,0000.0,0005.21,0002.69,0001.93
2023-10-04 14:35:00,SystemResetWarning,0833.0,4.99,000.00,028.9,026.6,000.0,037.6,030.4,16.0,0000.0,0005.08,0002.61,0001.91
2023-10-04 14:36:00,SystemResetWarning,0833.0,5.00,000.00,028.9,026.8,000.0,037.5,030.5,15.9,0000.0,0006.35,0002.63,0001.89
2023-10-04 14:37:00,SystemResetWarning,0833.2,4.99,000.00,028.9,027.0,000.0,037.5,030.5,16.0,0000.0,0006.50,0002.61,0001.88
2023-10-04 14:38:00,SystemResetWarning,0833.2,5.00,000.00,028.9,027.1,000.0,037.5,030.5,16.0,0000.0,0006.66,0002.62,0001.87
2023-10-04 14:39:00,SystemResetWarning,0833.3,5.00,000.00,028.9,027.3,000.0,037.5,030.5,16.0,0000.0,0006.95,0002.64,0001.88
2023-10-04 14:40:00,SystemResetWarning,0833.1,5.00,000.00,028.9,027.4,000.0,037.4,030.6,15.7,0000.0,0006.98,0002.63,0001.88
2023-10-04 14:41:00,SystemResetWarning,0832.9,5.01,000.00,028.9,027.4,000.0,037.4,030.6,15.6,0000.0,0007.50,0002.63,0001.89
2023-10-04 14:42:00,SystemResetWarning,0832.9,5.02,000.00,029.0,027.5,000.0,037.4,030.6,15.5,0000.0,0007.22,0002.63,0001.89
2023-10-04 14:43:00,SystemResetWarning,0832.9,5.00,000.00,029.0,027.6,000.0,037.4,030.7,15.6,0000.0,0006.79,0002.59,0001.90
2023-10-04 14:44:00,SystemResetWarning,0832.8,5.00,000.00,029.0,027.6,000.0,037.4,030.7,15.8,0000.0,0006.46,0002.50,0001.90
2023-10-04 14:45:00,SystemResetWarning,0833.1,5.00,000.00,029.0,027.7,000.0,037.4,030.7,15.8,0000.0,0006.52,0002.53,0001.91
2023-10-04 14:46:00,SystemResetWarning,0833.2,5.00,000.00,029.0,027.7,000.0,037.4,030.7,15.9,0000.0,0006.73,0002.57,0001.92
2023-10-04 14:47:00,SystemResetWarning,0833.2,5.00,000.00,029.0,027.7,000.0,037.4,030.8,15.9,0000.0,0006.34,0002.58,0001.93
2023-10-04 14:48:00,SystemResetWarning,0833.2,5.00,000.00,029.1,027.8,000.0,037.4,030.8,15.9,0000.0,0006.68,0002.59,0001.94
2023-10-04 14:49:00,SystemResetWarning,0833.3,4.99,000.00,029.1,027.8,000.0,037.4,030.8,15.9,0000.0,0007.64,0002.65,0001.96
2023-10-04 14:50:00,SystemResetWarning,0833.0,5.00,000.00,029.1,027.8,000.0,037.5,030.8,15.8,0000.0,0007.65,0002.64,0001.97
2023-10-04 14:51:00,SystemResetWarning,0833.0,5.00,000.00,029.1,027.8,000.0,037.5,030.8,15.9,0000.0,0008.94,0002.65,0001.98
2023-10-04 14:52:00,SystemResetWarning,0832.8,5.00,000.00,029.1,027.9,000.0,037.5,030.8,15.7,0000.0,0009.54,0002.64,0001.99
2023-10-04 14:53:00,SystemResetWarning,0832.8,5.00,000.00,029.1,027.9,000.0,037.5,030.9,15.8,0000.0,0009.70,0002.64,0002.00
2023-10-04 14:54:00,SystemResetWarning,0832.7,5.00,000.00,029.2,027.9,000.0,037.5,030.9,15.8,0000.0,0009.86,0002.68,0002.01
2023-10-04 14:55:00,SystemResetWarning,0832.7,5.00,000.00,029.2,027.9,000.0,037.5,030.9,16.1,0000.0,0010.09,0002.73,0002.01
2023-10-04 14:56:00,SystemResetWarning,0832.7,5.01,000.00,029.2,027.9,000.0,037.5,030.9,15.8,0000.0,0010.09,0002.73,0002.02
2023-10-04 14:57:00,SystemResetWarning,0832.7,5.00,000.00,029.2,027.9,000.0,037.6,030.9,15.7,0000.0,0010.13,0002.73,0002.03
2023-10-04 14:58:00,SystemResetWarning,0832.7,4.98,000.00,029.2,028.0,000.0,037.6,030.9,15.7,0000.0,0009.74,0002.73,0002.04
2023-10-04 14:59:00,SystemResetWarning,0832.7,5.00,000.00,029.2,028.0,000.0,037.6,030.9,15.4,0000.0,0009.85,0002.71,0002.05
